カタログに戻る

STARLINK-34772

運用中通信VLEO
NORAD 65020·PAYLOAD·🇺🇸 United States

打ち上げ Jul 30, 2025 から Cape Canaveral Space Force Station

Loading…

次のパス (今後24時間)

TLE

最新Source: CelesTrak SupGP

元期: Sep 14, 2026, 21:35 UTC

1 65020C 25161F   26257.89979167 -.00054425  00000+0 -16081-2 0  2572
2 65020  53.1573 131.7350 0001125  78.2510 138.7738 15.34415709    18

AllMySatでSTARLINK-34772をリアルタイム追跡

Download on the App Store